Weather History for Dubuque, IA

Change the Weather History Date:

Friday, January 24, 2014

  Actual Average Record
Temperature  
Mean Temperature 10 °F 19 °F  
Max Temperature 32 °F 27 °F 59 °F (1967)
Min Temperature -13 °F 11 °F -19 °F (1936)
Degree Days  
Heating Degree Days 55 46  
Month to date heating degree days 1306 1104  
Since 1 July heating degree days 4431 3914  
Cooling Degree Days 0 0  
Month to date cooling degree days 0 0  
Year to date cooling degree days 0 0  
Moisture  
Dew Point 13 °F    
Average Humidity 83    
Maximum Humidity 100    
Minimum Humidity 66    
Precipitation  
Precipitation 0.05 in 0.04 in 0.73 in (1938)
Month to date precipitation 0.59 0.89  
Year to date precipitation 0.59 0.89  
Snow  
Snow 0.60 in 0.30 in - ()
Month to date snowfall 8.8 7.6  
Since 1 July snowfall 31.1 22.2  
Snow Depth 6.00 in    
Sea Level Pressure  
Sea Level Pressure 29.78 in    
Wind  
Wind Speed 21 mph (SW)    
Max Wind Speed 32 mph    
Max Gust Speed 39 mph    
Visibility 7 miles    
Events Snow    
T = Trace of Precipitation, MM = Missing Value Source: NWS Daily Summary

Daily Weather History Graph

Daily Weather History Graph

Search for Another Location

Airport:

Trip Planner

Search our weather history database for the weather conditions in past years. The results will help you decide how hot, cold, wet, or windy it might be!

Date:

Astronomy

Jan. 24, 2014 Rise Set
Actual Time 7:23 AM CST 5:06 PM CST
Civil Twilight 6:53 AM CST 5:36 PM CST
Nautical Twilight 6:19 AM CST 6:11 PM CST
Astronomical Twilight 5:45 AM CST 6:44 PM CST
Moon 12:49 AM CST (1/24) 11:26 AM CST (1/24)
Length of Visible Light 10h 43m
Length of Day
9h 42m
Last Quarter, 44% of the Moon is Illuminated
Jan 24
Last Quarter
Jan 30
New
Feb 6
First Quarter
Feb 14
Full
Feb 22
Last Quarter

Hourly Weather History & Observations

Time (CST) Temp. Windchill Dew Point Humidity Pressure Visibility Wind Dir Wind Speed Gust Speed Precip Events Conditions
12:53 AM -11.0 °F -30.9 °F -14.1 °F 86% 30.50 in 10.0 mi SSW 11.5 mph - N/A   Clear
1:53 AM -11.9 °F -31.0 °F -15.0 °F 86% 30.47 in 10.0 mi SW 10.4 mph - N/A   Clear
2:53 AM -8.0 °F -28.8 °F -11.9 °F 83% 30.42 in 10.0 mi South 13.8 mph - N/A   Clear
3:53 AM -6.0 °F -28.4 °F -9.9 °F 83% 30.35 in 10.0 mi SSW 17.3 mph - N/A   Clear
4:53 AM -2.0 °F -23.9 °F -7.1 °F 79% 30.30 in 10.0 mi SSW 18.4 mph - N/A   Clear
5:53 AM 1.9 °F -22.4 °F -6.0 °F 69% 30.19 in 10.0 mi SSW 27.6 mph - N/A   Clear
6:53 AM 5.0 °F -18.3 °F -5.1 °F 63% 30.14 in 10.0 mi SSW 27.6 mph 35.7 mph N/A   Clear
7:53 AM 7.0 °F -16.0 °F -2.0 °F 67% 30.06 in 9.0 mi SSW 28.8 mph 35.7 mph N/A   Scattered Clouds
8:53 AM 9.0 °F -13.0 °F -0.0 °F 67% 30.03 in 4.0 mi SSW 27.6 mph 38.0 mph N/A   Haze
9:53 AM 10.9 °F -8.8 °F 1.9 °F 67% 29.99 in 7.0 mi SW 23.0 mph 33.4 mph N/A   Overcast
10:53 AM 14.0 °F -5.8 °F 5.0 °F 67% 29.93 in 5.0 mi SW 26.5 mph 38.0 mph N/A   Haze
11:53 AM 16.0 °F -2.1 °F 7.0 °F 68% 29.89 in 9.0 mi SW 23.0 mph 32.2 mph N/A   Overcast
12:53 PM 19.0 °F 1.6 °F 10.0 °F 68% 29.83 in 8.0 mi SW 24.2 mph 34.5 mph N/A   Mostly Cloudy
1:53 PM 19.9 °F 4.3 °F 10.9 °F 68% 29.80 in 10.0 mi SW 19.6 mph - N/A   Scattered Clouds
2:53 PM 21.9 °F 5.1 °F 14.0 °F 72% 29.75 in 9.0 mi WSW 25.3 mph 32.2 mph N/A   Mostly Cloudy
3:53 PM 24.1 °F 9.4 °F 15.1 °F 69% 29.71 in 10.0 mi SW 20.7 mph - N/A   Overcast
4:15 PM 24.1 °F 9.4 °F 16.0 °F 71% 29.62 in 10.0 mi SW 20.7 mph - N/A   Overcast
4:45 PM 25.0 °F 10.6 °F 16.0 °F 69% 29.63 in 10.0 mi SW 20.7 mph - N/A   Scattered Clouds
4:53 PM 25.0 °F 10.9 °F 16.0 °F 69% 29.69 in 10.0 mi SW 19.6 mph - N/A   Partly Cloudy
5:53 PM 26.1 °F 11.6 °F 17.1 °F 69% 29.65 in 10.0 mi SW 21.9 mph - N/A   Mostly Cloudy
6:53 PM 27.0 °F 13.2 °F 18.0 °F 69% 29.62 in 10.0 mi SW 20.7 mph - N/A   Overcast
7:24 PM 28.0 °F 13.3 °F 21.9 °F 78% 29.55 in 2.5 mi WSW 25.3 mph 35.7 mph 0.00 in Snow Light Snow
7:39 PM 27.0 °F 12.2 °F 24.1 °F 89% 29.54 in 1.2 mi WSW 24.2 mph - 0.00 in Snow Light Snow
7:53 PM 27.0 °F 12.2 °F 25.0 °F 92% 29.59 in 1.2 mi WSW 24.2 mph - 0.00 in Snow Light Snow
8:43 PM 27.0 °F 12.5 °F 26.1 °F 96% 29.50 in 1.8 mi WSW 23.0 mph - 0.01 in Snow Light Snow
8:53 PM 27.0 °F 12.5 °F 27.0 °F 100% 29.55 in 1.8 mi WSW 23.0 mph - 0.02 in Snow Light Snow
9:32 PM 28.0 °F 14.3 °F 27.0 °F 96% 29.47 in 2.5 mi WSW 21.9 mph - 0.01 in Snow Light Snow
9:35 PM 28.0 °F 13.9 °F 27.0 °F 96% 29.47 in 3.0 mi WSW 23.0 mph - 0.01 in Snow Light Snow
9:44 PM 28.0 °F 13.9 °F 27.0 °F 96% 29.47 in 3.0 mi WSW 23.0 mph - 0.01 in Snow Light Snow
9:49 PM 28.4 °F 14.1 °F 28.4 °F 100% 29.46 in 1.8 mi WSW 24.2 mph - 0.01 in Snow Light Snow
9:53 PM 28.9 °F 15.1 °F 28.0 °F 96% 29.52 in 1.8 mi WSW 23.0 mph 34.5 mph 0.01 in Snow Light Snow
10:01 PM 28.9 °F 15.8 °F 28.0 °F 96% 29.47 in 3.0 mi WSW 20.7 mph - 0.01 in Snow Light Snow
10:19 PM 28.9 °F 15.4 °F 28.0 °F 96% 29.46 in 2.0 mi WSW 21.9 mph - 0.01 in Snow Light Snow
10:32 PM 28.9 °F 15.8 °F 28.9 °F 100% 29.45 in 4.0 mi WSW 20.7 mph - 0.01 in   Overcast
10:53 PM 30.0 °F 17.9 °F 28.9 °F 96% 29.50 in 9.0 mi West 18.4 mph - 0.01 in   Overcast
11:53 PM 32.0 °F 21.6 °F 30.9 °F 96% 29.49 in 10.0 mi West 15.0 mph - 0.01 in   Overcast